Date String (YYYY-MM-DD hh:mm:ss) UTC,Instrument flags,Ambient pressure (hPa),Sample flow (lpm),Bypass flow (lpm),Sample temperature (°C),Ambient temperature (°C),ASC tube jacket temperature (°C),LED temperature (°C),Box temperature (°C),Sample RH (%),Span deviation,Mass concentration (μg/m³),Mass concentration (μg/m³),Mass concentration (μg/m³)
DateTimeUTC,F1_M11,P_M11,Q1_M11,Q2_M11,T1_M11,T2_M11,T3_M11,T4_M11,T5_M11,U1_M11,ZSPAN_M11,X2_M11,X0_M11,X1_M11
2023-04-05 14:00:00,,0826.9,4.99,0.00,22.7,21.4,00.0,31.0,24.1,10.6,0001.1,0008.99,0014.97,0008.49
2023-04-05 14:01:00,,0827.0,5.00,0.00,22.6,21.2,00.0,31.0,24.1,10.5,0001.1,0009.07,0015.27,0008.52
2023-04-05 14:02:00,,0827.0,5.01,0.00,22.6,21.1,00.0,31.0,24.0,10.4,0001.2,0009.11,0015.20,0008.55
2023-04-05 14:03:00,,0827.0,5.00,0.00,22.6,21.0,00.0,31.0,24.0,10.4,0001.2,0009.09,0014.61,0008.56
2023-04-05 14:04:00,,0827.0,4.99,0.00,22.5,20.9,00.0,31.0,24.0,10.4,0001.2,0009.08,0014.10,0008.57
2023-04-05 14:05:00,,0827.0,5.00,0.00,22.6,21.5,00.0,30.9,24.2,10.3,0001.3,0009.11,0014.14,0008.59
2023-04-05 14:06:00,,0827.1,5.01,0.00,22.7,22.9,00.0,30.9,24.7,10.2,0001.6,0009.16,0014.20,0008.60
2023-04-05 14:07:00,,0827.1,4.99,0.00,22.9,23.6,00.0,31.0,24.9,10.1,0001.7,0009.23,0014.40,0008.62
2023-04-05 14:08:00,,0827.2,4.99,0.00,22.9,23.3,00.0,31.0,24.7,10.1,0001.4,0009.21,0014.40,0008.61
2023-04-05 14:09:00,,0827.1,5.00,0.00,22.9,23.0,00.0,31.1,24.5,10.1,0001.6,0009.23,0014.81,0008.61
2023-04-05 14:10:00,,0827.1,5.01,0.00,22.9,22.6,00.0,31.1,24.4,10.1,0001.7,0009.28,0014.83,0008.61
2023-04-05 14:11:00,,0827.1,5.00,0.00,22.8,22.3,00.0,31.1,24.3,10.1,0001.9,0009.35,0014.46,0008.66
2023-04-05 14:12:00,,0827.1,5.00,0.00,22.8,22.1,00.0,31.1,24.3,10.1,0001.7,0009.36,0013.75,0008.71
2023-04-05 14:13:00,,0827.1,4.99,0.00,22.8,21.9,00.0,31.1,24.3,10.0,0001.5,0009.35,0013.63,0008.74
2023-04-05 14:14:00,,0827.2,5.00,0.00,22.8,21.7,00.0,31.1,24.2,10.0,0001.4,0009.39,0013.56,0008.77
2023-04-05 14:15:00,,0827.2,5.01,0.00,22.8,21.5,00.0,31.1,24.2,10.0,0001.3,0009.43,0013.64,0008.80
2023-04-05 14:16:00,,0827.1,4.99,0.00,22.7,21.4,00.0,31.1,24.2,10.0,0001.3,0009.43,0013.71,0008.82
2023-04-05 14:17:00,,0827.1,4.99,0.00,22.7,21.3,00.0,31.1,24.1,10.0,0001.0,0009.42,0013.65,0008.86
2023-04-05 14:18:00,,0827.2,5.01,0.00,22.7,21.2,00.0,31.1,24.1,09.9,0000.9,0009.35,0013.45,0008.84
2023-04-05 14:19:00,,0827.2,5.00,0.00,22.7,21.1,00.0,31.1,24.1,09.8,0001.0,0009.37,0013.46,0008.85
2023-04-05 14:20:00,,0827.2,5.01,0.00,22.7,21.0,00.0,31.1,24.1,09.8,0001.0,0009.36,0013.14,0008.85
2023-04-05 14:21:00,,0827.2,4.99,0.00,22.6,21.1,00.0,31.0,24.1,09.8,0000.8,0009.34,0012.78,0008.86
2023-04-05 14:22:00,,0827.2,5.01,0.00,22.7,22.3,00.0,31.0,24.6,09.8,0000.5,0009.32,0012.70,0008.86
2023-04-05 14:23:00,,0827.3,5.00,0.00,22.9,23.5,00.0,31.0,25.0,09.7,0000.6,0009.25,0012.65,0008.81
2023-04-05 14:24:00,,0827.3,4.99,0.00,23.0,23.6,00.0,31.1,24.9,09.7,0000.6,0009.24,0012.66,0008.80
2023-04-05 14:25:00,,0827.3,4.98,0.00,23.0,23.3,00.0,31.2,24.8,09.7,0000.7,0009.23,0012.76,0008.78
2023-04-05 14:26:00,,0827.2,5.01,0.00,23.0,22.9,00.0,31.2,24.6,09.7,0000.7,0009.23,0012.75,0008.78
2023-04-05 14:27:00,,0827.3,5.00,0.00,23.0,22.6,00.0,31.2,24.5,09.7,0000.6,0009.26,0012.73,0008.78
2023-04-05 14:28:00,,0827.4,5.01,0.00,22.9,22.3,00.0,31.2,24.5,09.7,0000.8,0009.27,0012.83,0008.75
2023-04-05 14:29:00,,0827.4,5.00,0.00,22.9,22.1,00.0,31.2,24.4,09.6,0000.9,0009.27,0012.86,0008.74
2023-04-05 14:30:00,,0827.4,5.00,0.00,22.9,21.9,00.0,31.2,24.4,09.7,0000.9,0009.28,0012.92,0008.74
2023-04-05 14:31:00,,0827.4,5.01,0.00,22.9,21.7,00.0,31.2,24.4,09.7,0001.0,0009.28,0012.90,0008.74
2023-04-05 14:32:00,,0827.3,4.99,0.00,22.8,21.6,00.0,31.2,24.3,09.7,0001.0,0009.28,0013.25,0008.73
2023-04-05 14:33:00,,0827.3,4.99,0.00,22.8,21.5,00.0,31.2,24.3,09.7,0001.1,0009.24,0013.22,0008.71
2023-04-05 14:34:00,,0827.4,5.00,0.00,22.8,21.3,00.0,31.2,24.2,09.7,0001.1,0009.23,0013.28,0008.70
2023-04-05 14:35:00,,0827.4,5.00,0.00,22.8,21.3,00.0,31.2,24.2,09.7,0001.2,0009.22,0013.53,0008.68
2023-04-05 14:36:00,,0827.4,5.00,0.00,22.8,21.2,00.0,31.2,24.2,09.7,0001.3,0009.22,0013.46,0008.67
2023-04-05 14:37:00,,0827.4,5.00,0.00,22.7,21.1,00.0,31.2,24.1,09.7,0001.3,0009.20,0013.68,0008.66
2023-04-05 14:38:00,,0827.3,5.01,0.00,22.7,21.1,00.0,31.1,24.1,09.7,0001.2,0009.18,0013.90,0008.66
2023-04-05 14:39:00,,0827.3,5.00,0.00,22.7,21.0,00.0,31.1,24.1,09.7,0001.1,0009.17,0013.95,0008.65
2023-04-05 14:40:00,,0827.3,5.00,0.00,22.7,21.4,00.0,31.1,24.3,09.6,0001.1,0009.18,0014.01,0008.66
2023-04-05 14:41:00,,0827.4,5.01,0.00,22.8,22.8,00.0,31.0,24.8,09.6,0000.9,0009.17,0013.96,0008.67
2023-04-05 14:42:00,,0827.4,4.99,0.00,23.0,23.7,00.0,31.1,25.0,09.5,0000.9,0009.19,0014.05,0008.65
2023-04-05 14:43:00,,0827.4,4.98,0.00,23.0,23.5,00.0,31.2,24.9,09.5,0001.0,0009.16,0013.76,0008.65
2023-04-05 14:44:00,,0827.4,5.01,0.00,23.0,23.2,00.0,31.2,24.8,09.5,0001.2,0009.17,0013.71,0008.64
2023-04-05 14:45:00,,0827.3,5.01,0.00,23.0,22.9,00.0,31.2,24.7,09.5,0001.1,0009.21,0013.75,0008.66
2023-04-05 14:46:00,,0827.4,5.00,0.00,23.0,22.5,00.0,31.3,24.6,09.5,0001.2,0009.22,0013.44,0008.67
2023-04-05 14:47:00,,0827.3,4.99,0.00,23.0,22.3,00.0,31.3,24.5,09.5,0000.9,0009.20,0013.38,0008.68
2023-04-05 14:48:00,,0827.4,4.99,0.00,23.0,22.1,00.0,31.3,24.5,09.5,0000.9,0009.17,0012.94,0008.67
2023-04-05 14:49:00,,0827.4,5.01,0.00,22.9,21.9,00.0,31.3,24.4,09.5,0001.2,0009.15,0012.75,0008.67
2023-04-05 14:50:00,,0827.3,5.01,0.00,22.9,21.7,00.0,31.3,24.4,09.5,0001.4,0009.13,0012.89,0008.68
2023-04-05 14:51:00,,0827.4,5.00,0.00,22.9,21.6,00.0,31.3,24.4,09.6,0001.5,0009.12,0012.82,0008.68
2023-04-05 14:52:00,,0827.4,4.99,0.00,22.9,21.5,00.0,31.3,24.4,09.6,0001.4,0009.15,0012.86,0008.68
2023-04-05 14:53:00,,0827.6,5.00,0.00,22.9,21.4,00.0,31.3,24.3,09.6,0001.6,0009.11,0012.72,0008.68
2023-04-05 14:54:00,,0827.6,5.01,0.00,22.8,21.3,00.0,31.2,24.3,09.6,0001.6,0009.12,0012.75,0008.68
2023-04-05 14:55:00,,0827.4,5.01,0.00,22.8,21.3,00.0,31.2,24.3,09.6,0001.4,0009.15,0013.25,0008.69
2023-04-05 14:56:00,,0827.4,5.00,0.00,22.8,21.2,00.0,31.2,24.3,09.7,0001.3,0009.13,0013.55,0008.69
2023-04-05 14:57:00,,0827.4,4.99,0.00,22.8,21.1,00.0,31.2,24.3,09.6,0001.2,0009.10,0013.99,0008.67
2023-04-05 14:58:00,,0827.5,4.99,0.00,22.8,21.1,00.0,31.2,24.2,09.7,0001.5,0009.09,0013.94,0008.66
2023-04-05 14:59:00,,0827.6,5.00,0.00,22.7,21.0,00.0,31.2,24.2,09.7,0001.8,0009.13,0013.98,0008.68
